Flag for Canada Weather past 2 weeks in Fort Simpson, Northwest Territories, Canada

Now
70 °F

Partly sunny.


Feels Like: 70 °F
Forecast: 48 / 62 °F
Wind: 8 mph from North

Location: Fort Simpson

Current Time: Jul 5, 2015 at 10:02:39 PM

Latest Report: Jul 5, 2015 at 9:00 PM


Visibility: 15 mi

Pressure: 30.06 "Hg

Humidity: 50%

Dew point: 50 °F

Location of Fort SimpsonLocation

Historic Weather in Fort Simpson — Graph

°F

Fort Simpson temperature yesterday

Maximum temperature yesterday: 75 °F (at 6:00 PM)
Minimum temperature yesterday: 54 °F (at 4:00 AM)
Average temperature yesterday: 64 °F

Past Weeks' High & Low Weather Summary

 TemperatureHumidityPressure
High86 °F (Jun 25, 3:00 PM)100% (Jun 21, 6:00 AM)30.18 "Hg (Jun 21, 6:00 AM)
Low48 °F (Jun 22, 5:00 AM)21% (Jun 28, 5:00 PM)29.68 "Hg (Jun 26, 5:00 PM)
Average68 °F57%29.86 "Hg
* Reported Jun 20 9:00 PM — Jul 5 9:00 PM, Fort Simpson, Weather by CustomWeather, © 2015

Note: Actual official high and low records may vary slightly from our data, if they occured in-between our weather recording intervals... More about our weather records

Advertising

Fort Simpson weather history for previous 24 hours

 ConditionsComfort  
Time TempWeatherWind HumidityBarometerVisibility
9:00 PM
Sun, Jul 5
70 °FPartly sunny.8 mph50%30.06 "Hg15 mi
8:00 PM72 °FScattered clouds.2 mph47%30.04 "Hg15 mi
7:00 PM72 °FPassing clouds.3 mph47%30.05 "Hg15 mi
6:00 PM70 °FScattered clouds.6 mph53%30.06 "Hg15 mi
5:00 PM68 °FScattered clouds.2 mph56%30.09 "Hg15 mi
4:00 PM64 °FBroken clouds.5 mph64%30.10 "Hg15 mi
3:00 PM61 °FPartly sunny.8 mph83%30.12 "Hg15 mi
2:00 PM63 °FPartly sunny.13 mph73%30.11 "Hg15 mi
1:00 PM64 °FPartly sunny.16 mph68%30.10 "Hg15 mi
12:00 PM66 °FPartly sunny.13 mph60%30.09 "Hg15 mi
11:00 AM66 °FPartly sunny.12 mph64%30.10 "Hg15 mi
10:00 AM63 °FPartly sunny.13 mph73%30.10 "Hg15 mi
9:00 AM61 °FPartly sunny.10 mph72%30.09 "Hg15 mi
8:00 AM61 °FPartly sunny.15 mph72%30.07 "Hg15 mi
7:00 AM59 °FPartly sunny.8 mph72%30.07 "Hg15 mi
6:00 AM55 °FPartly sunny.No wind77%30.05 "Hg15 mi
5:00 AM55 °FPassing clouds.2 mph77%30.05 "Hg15 mi
4:00 AM59 °FPassing clouds.3 mph68%30.05 "Hg15 mi
3:00 AM63 °FPartly cloudy.5 mph56%30.05 "Hg15 mi
2:00 AM63 °FPassing clouds.7 mph56%30.06 "Hg15 mi
1:00 AM64 °FPartly cloudy.6 mph52%30.07 "Hg15 mi
12:00 AM66 °FPartly sunny.7 mph52%30.08 "Hg15 mi
11:00 PM
Sat, Jul 4
68 °FBroken clouds.5 mph49%30.09 "Hg15 mi
10:00 PM70 °FBroken clouds.3 mph46%30.09 "Hg15 mi
Weather by CustomWeather, © 2015

See weather overviewHow to use our weather pages